Weather History for Hayward, WI

Change the Weather History Date:

Thursday, October 24, 2013

  Actual Average Record
Temperature  
Mean Temperature 36 °F -  
Max Temperature 41 °F 65 °F 70 °F (1967)
Min Temperature 30 °F 43 °F 15 °F (2002)
Degree Days  
Heating Degree Days 30    
Moisture  
Dew Point 26 °F    
Average Humidity 72    
Maximum Humidity 86    
Minimum Humidity 55    
Precipitation  
Precipitation 0.00 in - - ()
Sea Level Pressure  
Sea Level Pressure 30.17 in    
Wind  
Wind Speed 3 mph (West)    
Max Wind Speed 7 mph    
Max Gust Speed -    
Visibility 10 miles    
Events      
Averages and records for this station are not official NWS values.
T = Trace of Precipitation, MM = Missing Value Source: NWS Daily Summary

Daily Weather History Graph

Daily Weather History Graph

Search for Another Location

Airport:

Trip Planner

Search our weather history database for the weather conditions in past years. The results will help you decide how hot, cold, wet, or windy it might be!

Date:

Astronomy

Oct. 24, 2013 Rise Set
Actual Time 7:35 AM CDT 6:03 PM CDT
Civil Twilight 7:04 AM CDT 6:34 PM CDT
Nautical Twilight 6:29 AM CDT 7:09 PM CDT
Astronomical Twilight 5:55 AM CDT 7:43 PM CDT
Moon 10:21 PM CDT (10/24) 12:43 PM CDT (10/24)
Length of Visible Light 11h 29m
Length of Day
10h 28m
Waning Gibbous, 71% of the Moon is Illuminated
Oct 24
Waning Gibbous
Oct 26
Last Quarter
Nov 3
New
Nov 9
First Quarter
Nov 17
Full

Hourly Weather History & Observations

Time (CDT) Temp. Windchill Dew Point Humidity Pressure Visibility Wind Dir Wind Speed Gust Speed Precip Events Conditions
12:49 AM 30.2 °F 26.7 °F 24.8 °F 80% 30.02 in 10.0 mi West 3.5 mph - N/A   Overcast
12:53 AM 30.9 °F - 24.1 °F 76% 30.07 in 10.0 mi Calm Calm - N/A   Overcast
1:53 AM 30.9 °F 24.3 °F 25.0 °F 79% 30.08 in 10.0 mi Variable 6.9 mph - N/A   Overcast
2:33 AM 30.2 °F 26.7 °F 24.8 °F 80% 30.05 in 10.0 mi Variable 3.5 mph - N/A   Overcast
2:43 AM 30.2 °F 26.7 °F 24.8 °F 80% 30.05 in 10.0 mi Variable 3.5 mph - N/A   Overcast
2:53 AM 30.0 °F 25.2 °F 25.0 °F 82% 30.09 in 10.0 mi Variable 4.6 mph - N/A   Overcast
3:28 AM 30.2 °F - 24.8 °F 80% 30.05 in 10.0 mi Calm Calm - N/A   Overcast
3:53 AM 30.0 °F 26.5 °F 25.0 °F 82% 30.11 in 10.0 mi Variable 3.5 mph - N/A   Overcast
4:44 AM 30.2 °F 26.7 °F 26.6 °F 86% 30.07 in 10.0 mi West 3.5 mph - N/A   Overcast
4:53 AM 30.9 °F 27.5 °F 26.1 °F 82% 30.12 in 10.0 mi Variable 3.5 mph - N/A   Overcast
5:53 AM 30.9 °F - 26.1 °F 82% 30.13 in 10.0 mi Calm Calm - N/A   Overcast
6:53 AM 30.9 °F - 25.0 °F 79% 30.15 in 10.0 mi Calm Calm - N/A   Overcast
7:53 AM 30.9 °F 27.5 °F 25.0 °F 79% 30.16 in 10.0 mi Variable 3.5 mph - N/A   Overcast
8:53 AM 32.0 °F 27.5 °F 26.1 °F 79% 30.18 in 10.0 mi Variable 4.6 mph - N/A   Overcast
9:53 AM 33.1 °F 28.7 °F 26.1 °F 75% 30.19 in 10.0 mi Variable 4.6 mph - N/A   Overcast
10:53 AM 36.0 °F 30.3 °F 26.1 °F 67% 30.20 in 10.0 mi WNW 6.9 mph - N/A   Overcast
11:30 AM 35.6 °F 29.9 °F 26.6 °F 70% 30.16 in 10.0 mi Variable 6.9 mph - N/A   Mostly Cloudy
11:53 AM 36.0 °F 33.3 °F 26.1 °F 67% 30.21 in 10.0 mi Variable 3.5 mph - N/A   Overcast
12:11 PM 37.4 °F 32.1 °F 28.4 °F 70% 30.17 in 10.0 mi Variable 6.9 mph - N/A   Overcast
12:33 PM 39.2 °F 35.9 °F 28.4 °F 65% 30.17 in 10.0 mi Variable 4.6 mph - N/A   Overcast
12:53 PM 37.0 °F 31.6 °F 26.1 °F 65% 30.21 in 10.0 mi Variable 6.9 mph - N/A   Overcast
1:53 PM 37.9 °F 35.5 °F 25.0 °F 60% 30.21 in 10.0 mi Variable 3.5 mph - N/A   Overcast
2:53 PM 37.9 °F 34.4 °F 25.0 °F 60% 30.22 in 10.0 mi Variable 4.6 mph - N/A   Overcast
3:53 PM 41.0 °F 36.4 °F 26.1 °F 55% 30.22 in 10.0 mi Variable 6.9 mph - N/A   Overcast
4:53 PM 39.0 °F 36.8 °F 26.1 °F 60% 30.23 in 10.0 mi Variable 3.5 mph - N/A   Overcast
5:53 PM 37.9 °F - 28.0 °F 68% 30.24 in 10.0 mi Calm Calm - N/A   Overcast
6:53 PM 37.0 °F - 27.0 °F 67% 30.26 in 10.0 mi Calm Calm - N/A   Overcast
7:53 PM 37.0 °F 34.5 °F 27.0 °F 67% 30.27 in 10.0 mi Variable 3.5 mph - N/A   Overcast
8:53 PM 37.0 °F 34.5 °F 26.1 °F 65% 30.27 in 10.0 mi West 3.5 mph - N/A   Overcast
9:53 PM 36.0 °F 33.3 °F 25.0 °F 64% 30.28 in 10.0 mi West 3.5 mph - N/A   Overcast
10:53 PM 36.0 °F 33.3 °F 25.0 °F 64% 30.28 in 10.0 mi Variable 3.5 mph - N/A   Overcast
11:53 PM 33.1 °F - 26.1 °F 75% 30.30 in 10.0 mi Calm Calm - N/A   Mostly Cloudy